Tracking 20083 objects as of 11-Dec-2019
HD Live streaming from Space Station
objects crossing your sky now

SCOUT G-1 DEB

Track SCOUT G-1 DEB now!
10-day predictions


NORAD ID: 19181
Int'l Code: 1988-033G
Perigee: 997.9 km
Apogee: 1,376.3 km
Inclination: 89.9 °
Period: 109.0 minutes
Semi major axis: 7558 km
RCS: 0.0549 m2 (small)
Launch date: April 26, 1988
Source: United States (US)
Launch site: AIR FORCE WESTERN TEST RANGE (AFWTR)

Note: This is SATELLITE DEBRIS
aabbcc
Your satellite tracking list
Your tracking list is empty




NASA's NSSDC Master Catalog

Two Line Element Set (TLE):
1 19181U 88033G   19344.39214723 -.00000032 +00000-0 -85796-4 0  9990
2 19181 089.8783 311.3119 0250292 184.3514 303.3628 13.21250155522830
Source of the keplerian elements: AFSPC